sat.trackr.live / text

‹ back to catalog

STARLINK-31133

NORAD 58622 · 2023-203E

PAYLOAD ACTIVE UNKNOWN

§ Identity

Operator
Country
US
Launch date
2023-12-23
Launch site
AFETR
Launch vehicle
Mass (kg)
RCS (m²)

Purposes: comms

External: N2YO · Heavens-Above · Gunter

§ Orbital elements

Epoch: 2026-05-25T00:25:10.849152Z

Period
94.27 min
Inclination
43.0012°
Eccentricity
0.0000876
Mean motion
15.27574908 rev/d
Perigee alt
482.5 km
Apogee alt
483.7 km
Semi-major
6,861.2 km
B*
7.8764e-6
RAAN
356.1306°
Arg perigee
266.9947°
Mean anomaly
93.0804°
Rev number
13,523

§ Raw data

STARLINK-311331 58622U 23203E   26145.01748668 -.00000045  00000+0  78764-5 0  99972 58622  43.0012 356.1306 0000876 266.9947  93.0804 15.27574908135239

JSON: /api/v1/satellites/58622 · /tle

For live sub-satellite position, see the globe view (requires WebGL).

§ Visibility from observer

Set your observer location to see the next 7 days of passes ≥ 10°. The values pass through the URL so the page stays shareable.

No JS? Fill the form by hand. The geolocation button needs JavaScript.